CDT,Max TemperatureF,Mean TemperatureF,Min TemperatureF,Max Dew PointF,MeanDew PointF,Min DewpointF,Max Humidity, Mean Humidity, Min Humidity, Max Sea Level PressureIn, Mean Sea Level PressureIn, Min Sea Level PressureIn, Max VisibilityMiles, Mean VisibilityMiles, Min VisibilityMiles, Max Wind SpeedMPH, Mean Wind SpeedMPH, Max Gust SpeedMPH,PrecipitationIn, CloudCover, Events, WindDirDegrees
2013-6-1,89,80,71,73,70,66,94,78,52,30.01,29.98,29.94,10,9,1,9,4,,0.00,5,Thunderstorm,151
2013-6-2,86,76,66,70,67,64,94,76,48,30.04,29.97,29.91,10,9,4,22,4,29,0.07,2,Thunderstorm,279
2013-6-3,87,79,71,72,69,66,88,74,55,29.97,29.93,29.88,10,10,4,12,3,,0.00,4,,14
2013-6-4,89,80,71,73,70,66,89,73,52,29.98,29.94,29.89,10,10,8,8,4,,0.00,4,,79
2013-6-5,89,78,66,73,69,63,94,79,55,29.97,29.92,29.83,10,8,0,17,3,37,0.00,4,Thunderstorm,136
2013-6-6,86,75,64,73,66,63,94,83,62,29.92,29.84,29.77,10,8,1,15,2,34,0.00,3,Thunderstorm,298
2013-6-7,82,74,66,70,66,63,94,79,58,29.93,29.86,29.79,10,9,3,9,3,,0.00,4,,285
2013-6-8,84,74,64,73,68,63,94,81,58,30.01,29.96,29.92,10,7,1,8,2,,0.00,1,Thunderstorm,83
2013-6-9,82,74,66,73,69,64,94,79,61,30.02,29.98,29.92,10,10,9,17,7,26,0.00,2,,153
2013-6-10,89,81,73,73,71,70,94,76,55,30.04,30.01,29.98,10,10,7,9,4,,0.00,3,,215
2013-6-11,91,80,69,75,71,66,94,76,52,30.14,30.08,30.04,10,8,0,8,1,,0.00,1,,261
2013-6-12,95,83,71,77,72,68,94,72,46,30.13,30.08,30.03,10,8,2,8,2,,0.00,1,,256
2013-6-13,91,81,71,73,71,68,88,71,49,30.06,29.99,29.90,10,10,8,9,3,,0.00,1,,270
2013-6-14,89,78,68,72,68,63,94,70,46,30.00,29.95,29.89,10,10,3,14,6,20,0.95,0,Thunderstorm,1
2013-6-15,89,78,66,72,66,61,89,68,43,30.05,30.01,29.98,10,10,6,8,4,,0.00,0,,64
2013-6-16,91,81,71,75,71,66,94,76,49,30.09,30.04,29.99,10,7,0,7,1,,0.00,2,,95
2013-6-17,91,81,71,73,72,70,94,73,52,30.04,29.99,29.94,10,9,3,12,4,18,0.00,1,,222
2013-6-18,87,79,71,73,70,64,94,75,55,30.03,29.97,29.93,10,10,8,14,6,20,0.30,2,Thunderstorm,243
2013-6-19,86,78,69,73,70,66,94,84,62,30.07,30.02,29.94,10,9,3,12,3,18,0.15,5,Thunderstorm,234
2013-6-20,89,79,69,73,70,66,94,78,52,30.15,30.09,30.04,10,9,2,8,1,,0.00,1,Thunderstorm,34
2013-6-21,89,79,69,73,70,66,94,73,49,30.17,30.12,30.09,10,8,3,9,3,,0.00,1,,49
2013-6-22,87,78,69,73,69,66,94,74,49,30.15,30.10,30.04,10,8,2,9,2,,0.00,1,,96
2013-6-23,89,79,69,72,69,66,94,75,49,30.13,30.08,30.05,10,8,2,20,2,25,0.00,1,,95
2013-6-24,84,78,71,75,71,68,94,87,70,30.19,30.13,30.09,10,8,0,20,3,24,0.00,3,Thunderstorm,164
2013-6-25,91,80,69,75,70,66,94,75,49,30.16,30.10,30.03,10,8,0,8,2,,0.00,3,,178
2013-6-26,91,81,71,75,71,68,89,72,49,30.10,30.04,29.98,10,10,7,8,4,,0.00,1,,228
2013-6-27,91,83,75,75,72,70,89,73,52,30.04,30.00,29.94,10,10,8,8,4,,0.00,0,,250
2013-6-28,91,82,73,75,73,64,94,74,55,29.95,29.88,29.78,10,10,9,28,3,40,0.00,1,Thunderstorm,256
2013-6-29,89,79,69,73,69,66,88,78,59,29.84,29.78,29.70,10,10,8,10,4,20,0.01,1,Thunderstorm,238
2013-6-30,89,78,66,70,65,61,94,70,38,29.83,29.77,29.74,10,10,7,13,3,16,0.00,2,,318